Location: Be?i?
(36.9044°N, 30.1006°E)
Time: 10:59:51
(UTC+00:00)

ASTRO E2 - Pass Details

Date: 05 August 2024
Orbit: 397 x 403 km, 31.4° (Epoch: 08 September)

Event Time Altitude Azimuth Distance (km) Brightness Sun altitude
Rises 18:50:43 0° 261° (W) 2,313 6.6 -19.5°
Reaches altitude 10° 18:53:03 10° 247° (WSW) 1,446 5.3 -19.8°
Enters shadow 18:54:40 20° 223° (SW) 976 4.1 -20.1°
